This is the latest recevied weather packets stored in our database for station/object KV9E. If no packets are shown the sender has not sent any weather packets the latest 10 day(s).
| Time | Temp. | Humidity | Pressure | Rain* | Wind** | Luminosity | Snow |
|---|---|---|---|---|---|---|---|
| 1788613223 | 23.89° C | 86% | 1016 hPa | 0 mm | - | 51 W/m² | - |
| 1788612922 | 23.33° C | 85% | 1016.1 hPa | 0 mm | - | 44 W/m² | - |
| 1788612618 | 23.33° C | 86% | 1016.1 hPa | 0 mm | - | 36 W/m² | - |
| 1788612314 | 23.33° C | 86% | 1016.4 hPa | 0 mm | - | 30 W/m² | - |
| 1788612010 | 23.33° C | 85% | 1015.9 hPa | 0 mm | - | 24 W/m² | - |
| 1788611705 | 23.33° C | 85% | 1016.4 hPa | 0 mm | - | 21 W/m² | - |
| 1788611401 | 23.33° C | 88% | 1016.4 hPa | 0 mm | - | 23 W/m² | - |
| 1788611095 | 23.33° C | 88% | 1016.1 hPa | 0 mm | - | 26 W/m² | - |
| 1788610822 | 23.33° C | 86% | 1016 hPa | 0 mm | - | 25 W/m² | - |
| 1788610486 | 23.89° C | 87% | 1016 hPa | 0 mm | - | 27 W/m² | - |
| 1788610185 | 23.33° C | 87% | 1015.8 hPa | 0 mm | - | 28 W/m² | - |
| 1788609880 | 23.33° C | 86% | 1015.8 hPa | 0 mm | - | 24 W/m² | - |
| 1788609575 | 23.33° C | 85% | 1015.9 hPa | 0 mm | - | 20 W/m² | - |
| 1788609273 | 23.33° C | 84% | 1015.8 hPa | 0 mm | - | 17 W/m² | - |
| 1788608963 | 23.89° C | 83% | 1015.5 hPa | 0 mm | - | 14 W/m² | - |
| 1788608662 | 23.89° C | 83% | 1015.8 hPa | 0 mm | - | 10 W/m² | - |
| 1788608361 | 23.89° C | 83% | 1015.5 hPa | 0 mm | - | 8 W/m² | - |
| 1788608057 | 23.89° C | 82% | 1015.4 hPa | 0 mm | - | 5 W/m² | - |
| 1788607753 | 23.89° C | 83% | 1015.4 hPa | 0 mm | - | 4 W/m² | - |
| 1788607448 | 23.89° C | 82% | 1015.3 hPa | 0 mm | - | 2 W/m² | - |
| 1788607143 | 23.89° C | 82% | 1015.2 hPa | 0 mm | - | 1 W/m² | - |
| 1788606842 | 23.89° C | 82% | 1015 hPa | 0 mm | - | 1 W/m² | - |
| 1788606542 | 23.89° C | 81% | 1015.2 hPa | 0 mm | - | 0 W/m² | - |
| 1788606237 | 23.89° C | 82% | 1015.1 hPa | 0 mm | - | 0 W/m² | - |
| 1788605932 | 23.89° C | 81% | 1015.1 hPa | 0 mm | - | 0 W/m² | - |
* Rain latest hour (hover to see other rain measurements)
** Current wind speed in m/s (hover to see current wind gust speed)